Probability
0 0 0 0 0 0 0 0 0 0 0 1 2 3 3 3 2 1 0 0 0 0 0 0 0 0 0 0 0 0 0 0 0 0 0 0 0 0 0 0 0 0 0
0 0 0 0 0 0 0 0 0 0 0 0 1 2 3 3 3 2 1 1 0 0 0 0 0 0 0 0 0 0 0 0 0 0 0 0 0 0 0 0 0 0 0
0 0 0 0 0 0 0 0 0 0 0 0 0 1 1 2 2 2 2 2 1 1 1 0 0 0 0 0 0 0 0 0 0 0 0 0 0 0 0 0 0 0 0
0 0 0 0 0 0 0 0 0 0 0 0 0 0 0 1 1 1 1 2 2 2 1 0 0 0 0 0 0 0 0 0 0 0 0 0 0 0 0 0 0 0 0
0 0 0 0 0 0 0 0 0 0 0 0 0 0 0 0 0 0 0 1 1 1 1 0 0 0 0 0 0 0 0 0 0 0 0 0 0 0 0 0 0 0 0
0 0 0 0 0 0 0 0 0 0 0 0 0 0 0 0 0 0 0 0 0 0 0 0 0 0 0 0 0 0 0 0 0 0 0 0 0 0 0 0 0 0 0
0 0 0 0 0 0 0 0 0 0 0 0 0 0 0 0 0 0 0 0 0 0 0 0 0 0 0 0 0 0 0 0 0 0 0 0 0 0 0 0 0 0 0
0 0 0 0 0 0 0 0 0 0 0 0 0 0 0 0 0 0 0 0 0 0 0 0 0 0 0 0 0 0 0 0 0 0 0 0 0 0 0 0 0 0 0
0 0 0 0 0 0 0 0 0 0 0 0 0 0 0 0 0 0 0 0 0 0 0 0 0 0 0 0 0 0 0 0 0 0 0 0 0 0 0 0 0 0 0
0 0 0 0 0 0 0 0 0 0 0 0 0 0 0 0 0 0 0 0 0 0 0 0 0 0 0 0 0 0 0 0 0 0 0 0 0 0 0 0 0 0 0
0 0 0 0 0 0 0 0 0 0 0 0 0 0 0 0 0 0 0 0 0 0 0 0 0 0 0 0 0 0 0 0 0 0 0 0 0 0 0 0 0 0 0
0 0 0 0 0 0 0 0 0 0 0 0 0 0 0 0 0 0 0 0 0 0 0 0 0 0 0 0 0 0 0 0 0 0 0 0 0 0 0 0 0 0 0
0 0 0 0 0 0 0 0 0 0 0 0 0 0 0 0 0 0 0 0 0 0 0 0 0 0 0 0 0 0 0 0 0 0 0 0 0 0 0 0 0 0 0
0 0 0 0 0 0 0 0 0 0 0 0 0 0 0 0 0 0 0 0 0 0 0 0 0 0 0 0 0 0 0 0 0 0 0 0 0 0 0 0 0 0 0
0 0 0 0 0 0 0 0 0 0 0 0 0 0 0 0 0 0 0 0 0 0 0 0 0 0 0 0 0 0 0 0 0 0 0 0 0 0 0 0 0 0 0
0 0 0 0 0 0 0 0 0 0 0 0 0 0 0 0 0 0 0 0 0 0 0 0 0 0 0 0 0 0 0 0 0 0 0 0 0 0 0 0 0 0 0
0 0 0 0 0 0 0 0 0 0 0 0 0 0 0 0 0 0 0 0 0 0 0 0 0 0 0 0 0 0 0 0 0 0 0 0 0 0 0 0 0 0 0
0 0 0 0 0 0 0 0 0 0 0 0 0 0 0 0 0 0 0 0 0 0 0 0 0 0 0 0 0 0 0 0 0 0 0 0 0 0 0 0 0 0 0
0 0 0 0 0 0 0 0 0 0 0 0 0 0 0 0 0 0 0 0 0 0 0 0 0 0 0 0 0 0 0 0 0 0 0 0 0 0 0 0 0 0 0
0 0 0 0 0 0 0 0 0 0 0 0 0 0 0 0 0 0 0 0 0 0 0 0 0 0 0 0 0 0 0 0 0 0 0 0 0 0 0 0 0 0 0
0 0 0 0 0 0 0 0 0 0 0 0 0 0 0 0 0 0 0 0 0 0 0 0 0 0 0 0 0 0 0 0 0 0 0 0 0 0 0 0 0 0 0
0 0 0 0 0 0 0 0 0 0 0 0 0 0 0 0 0 0 0 0 0 0 0 0 0 0 0 0 0 0 0 0 0 0 0 0 0 0 0 0 0 0 0
0 0 0 0 0 0 0 0 0 0 0 0 0 0 0 0 0 0 0 0 0 0 0 0 0 0 0 0 0 0 0 0 0 0 0 0 0 0 0 0 0 0 0
0 0 0 0 0 0 0 0 0 0 0 0 0 0 0 0 0 0 0 0 0 0 0 0 0 0 0 0 0 0 0 0 0 0 0 0 0 0 0 0 0 0 0
0 0 0 0 0 0 0 0 0 0 0 0 0 0 0 0 0 0 0 0 0 0 0 0 0 0 0 0 0 0 0 0 0 0 0 0 0 0 0 0 0 0 0
0 0 0 0 0 0 0 0 0 0 0 0 0 0 0 0 0 0 0 0 0 0 0 0 0 0 0 0 0 0 0 0 0 0 0 0 0 0 0 0 0 0 0
Wind_Speed
4 4 5 5 6 7 7 8 8 7 8 8 9 9 10 11 11 12 12 11 13 12 11 11 12 10 9 8 8 8 8 9 12 7 4 3 5 5 3 3 3 4 4
3 3 4 4 5 5 6 7 7 7 7 7 7 8 9 10 10 12 13 12 13 13 13 12 13 10 12 9 8 9 9 9 9 11 5 4 4 4 3 3 3 3 4
3 3 4 4 4 5 6 5 6 6 6 6 7 8 9 9 10 11 12 12 12 13 12 13 12 11 12 10 10 9 8 7 8 8 7 3 2 2 2 2 2 2 3
4 3 4 4 4 4 4 4 5 5 6 6 6 7 7 8 9 9 10 11 11 11 11 11 11 11 11 10 9 10 8 8 7 7 6 3 3 2 2 2 3 3 3
4 4 4 4 4 4 4 4 4 4 5 5 5 6 6 7 7 8 8 9 10 10 9 9 10 10 11 9 7 7 7 7 6 6 5 3 3 3 3 3 3 2 2
4 5 5 5 4 4 4 4 4 4 4 4 5 5 6 5 7 9 8 7 7 8 9 8 7 8 9 10 10 9 8 7 7 6 5 5 5 4 3 3 3 2 3
5 5 5 5 5 5 5 4 4 4 4 4 4 4 5 6 6 7 8 7 7 7 8 7 5 5 7 6 7 8 7 8 8 6 6 6 4 5 5 4 4 4 3
5 5 5 6 6 5 5 4 4 4 4 4 4 4 5 5 5 6 7 7 6 6 6 6 6 5 5 6 5 4 4 4 4 5 5 4 3 4 5 5 4 3 2
6 6 6 6 6 5 5 5 5 4 4 4 3 4 4 4 3 4 5 4 4 5 4 4 5 5 6 8 6 5 4 2 1 3 3 2 3 5 5 4 4 3 2
7 7 7 6 6 6 6 5 4 3 4 3 3 3 3 4 3 4 4 3 4 4 2 2 4 5 5 7 6 5 5 4 3 2 2 2 3 4 5 4 4 3 2
8 7 7 6 6 6 5 4 4 3 3 3 3 3 3 3 4 4 4 3 4 3 3 3 2 4 5 6 6 5 5 4 4 4 3 3 2 2 2 2 2 2 3
8 8 7 6 5 5 5 4 3 3 3 3 3 4 3 2 2 3 4 4 4 4 4 3 2 4 4 4 3 3 5 5 3 3 3 2 2 2 2 3 3 3 2
8 8 7 6 5 4 4 4 4 3 2 3 2 3 3 2 2 3 3 3 3 3 2 2 3 4 4 3 3 4 3 3 3 3 3 2 2 3 4 4 4 4 4
8 8 7 6 5 4 3 3 3 3 3 3 3 3 3 3 2 1 1 1 1 2 1 2 3 3 3 3 2 2 2 2 3 3 3 3 3 3 3 3 2 2 2
7 7 6 5 5 4 3 2 3 2 2 3 3 3 3 4 3 3 2 2 2 2 2 1 1 1 1 1 1 2 2 2 2 2 3 3 3 3 2 2 2 2 2
6 6 5 5 4 4 4 3 4 3 4 4 4 4 3 4 4 4 4 4 4 4 3 2 2 2 3 3 3 2 2 2 2 3 3 3 4 4 3 2 2 2 2
6 6 5 5 4 4 3 3 4 5 5 5 5 5 4 4 4 4 4 3 3 4 2 2 2 3 2 2 2 2 2 2 2 3 3 3 3 4 4 3 3 3 2
6 6 5 4 4 4 3 3 3 4 5 4 5 6 6 6 5 4 3 1 1 0 1 1 2 2 2 2 2 2 2 3 3 3 3 3 3 4 4 4 3 3 3
6 5 4 4 4 3 3 3 3 3 3 4 4 5 7 6 6 7 5 2 1 1 1 0 0 1 1 1 2 2 3 3 3 3 3 3 3 3 3 3 3 4 3
4 6 5 4 4 3 3 3 3 3 3 3 4 4 4 4 3 4 4 3 2 2 2 1 1 2 1 1 1 2 2 3 3 2 2 2 2 3 3 3 3 3 3
4 4 5 4 3 3 3 3 3 3 3 3 3 4 5 3 3 3 3 3 2 2 2 2 2 2 2 2 1 2 2 2 2 2 2 2 2 2 2 2 3 2 2
4 4 4 3 3 3 3 3 3 3 3 3 3 4 6 3 2 2 3 3 3 2 2 2 1 1 1 1 1 2 2 2 2 2 2 2 2 2 2 2 2 2 2
4 4 4 3 3 4 3 3 3 3 3 3 3 3 3 3 3 3 3 3 3 3 3 2 1 1 1 1 1 1 1 1 1 2 2 2 2 2 2 2 3 3 3
4 4 4 4 3 3 3 3 3 3 3 3 3 3 3 3 3 3 3 3 3 3 3 2 2 2 2 1 1 1 1 1 1 2 3 3 3 2 2 2 2 3 3
4 4 4 4 4 3 3 3 3 3 3 3 3 3 3 3 3 3 3 3 3 3 3 3 2 2 2 2 1 0 0 1 1 2 2 3 3 3 3 3 3 3 3
4 4 3 3 3 3 3 3 3 3 3 3 3 3 3 3 3 3 2 2 3 3 3 2 3 3 3 2 2 1 1 1 2 2 2 3 3 3 3 3 4 3 4
Wind_Direction
268 261 254 249 242 236 233 235 237 236 230 225 220 216 213 212 211 215 220 219 224 229 226 228 233 229 232 230 229 230 233 236 256 257 225 222 213 218 217 213 215 215 223
282 277 271 267 258 249 244 242 239 240 236 231 226 224 221 217 213 215 220 221 224 227 228 228 232 229 231 230 229 231 233 231 244 259 246 221 217 213 206 207 212 213 222
298 289 284 276 266 258 256 253 245 242 240 235 227 227 226 223 219 219 222 223 226 228 228 229 231 227 231 230 229 232 233 231 234 248 252 216 204 179 187 215 220 225 225
311 306 299 295 287 279 273 266 257 248 244 242 237 234 231 228 225 224 225 227 228 229 228 229 230 228 231 230 231 233 231 231 231 240 246 224 198 169 171 207 233 225 233
324 318 309 309 305 300 293 283 275 264 256 251 248 245 239 234 232 229 229 230 232 233 231 230 230 230 230 230 229 228 225 230 228 233 240 229 203 182 204 192 216 219 226
333 322 320 318 315 313 309 303 294 281 271 259 252 249 247 245 241 231 230 234 235 236 238 235 231 226 228 226 226 224 219 224 227 226 232 228 222 204 189 182 185 181 242
333 328 327 324 320 316 313 310 298 290 284 272 262 254 254 256 245 235 230 235 239 239 239 237 230 222 215 216 220 224 230 230 225 223 231 230 217 197 181 185 192 195 207
330 329 329 325 317 315 314 304 298 296 289 278 271 261 260 266 252 242 233 235 245 247 242 233 228 222 209 201 204 210 220 227 225 223 228 228 207 184 181 183 180 154 103
331 329 324 317 310 309 306 299 297 295 289 285 282 273 266 275 262 249 235 240 243 248 249 241 230 225 209 194 194 203 206 213 165 164 175 173 159 157 150 136 141 149 181
325 320 318 313 306 301 296 294 292 288 285 291 290 284 270 275 275 254 233 235 243 248 249 245 233 223 211 195 198 199 210 209 174 145 128 117 125 132 141 160 166 164 159
315 313 312 312 306 298 297 294 292 289 290 287 289 295 287 277 279 261 237 230 233 243 245 244 231 207 207 199 198 207 211 178 163 161 151 135 117 112 115 111 126 152 162
317 313 310 311 308 304 303 304 301 293 290 286 287 296 297 290 271 261 244 239 236 238 244 240 210 181 184 186 195 185 166 157 152 151 148 144 137 131 112 99 89 75 78
317 311 310 314 313 310 308 307 306 298 286 287 285 291 303 309 295 272 253 246 244 244 245 213 181 167 163 163 155 155 158 159 155 157 162 158 141 133 120 103 84 80 67
311 311 315 318 317 315 306 299 294 290 285 285 286 289 300 301 293 286 262 250 236 227 228 182 159 158 152 131 127 138 149 151 152 156 148 130 121 123 122 117 120 119 101
313 313 316 314 312 315 311 312 303 297 272 273 278 272 277 286 289 274 263 247 224 212 187 181 190 171 164 161 138 130 128 126 130 127 132 133 133 128 119 112 121 128 129
314 316 315 312 311 309 312 329 356 333 347 330 298 281 278 275 291 283 268 252 233 206 196 209 208 204 200 191 178 163 150 148 143 138 141 147 147 143 135 132 131 137 143
311 310 309 310 310 311 313 313 320 342 356 358 352 337 318 305 299 295 277 252 231 201 206 212 209 205 201 191 185 174 165 150 143 148 149 149 147 147 148 151 150 147 151
312 311 308 308 310 311 312 312 310 314 323 333 352 360 355 350 344 331 308 278 279 208 219 213 202 184 174 174 172 163 149 144 145 148 148 149 151 153 156 159 160 159 160
319 318 317 317 320 320 322 325 325 324 323 327 337 349 355 359 11 17 17 3 355 1 5 358 68 132 133 139 144 144 144 147 145 146 148 148 152 155 159 159 160 163 162
318 324 325 323 325 328 330 330 328 328 331 336 338 337 343 1 9 12 22 16 14 9 8 18 28 47 70 93 115 124 127 130 134 134 137 141 145 150 156 159 163 166 170
321 324 330 328 328 327 328 327 327 329 330 331 331 345 6 9 5 6 13 14 8 359 356 5 26 40 47 58 75 105 120 123 127 131 132 131 133 137 144 150 153 155 153
323 328 334 334 333 335 334 333 333 331 330 330 332 345 8 13 3 0 2 1 358 357 356 1 20 38 41 53 78 101 110 112 118 129 136 138 138 142 145 144 145 149 153
328 333 335 335 332 334 337 337 336 335 334 337 337 342 351 357 358 357 355 353 356 357 355 357 0 13 32 39 52 96 130 144 149 149 150 148 147 150 151 155 160 163 171
333 335 334 331 331 333 334 333 336 336 333 335 337 339 343 346 350 354 355 357 360 358 355 349 351 0 16 31 38 49 92 133 139 149 151 154 155 155 157 160 167 174 179
333 333 331 328 328 330 330 332 334 335 333 333 333 335 336 339 346 351 351 355 0 1 360 354 349 354 355 348 344 328 286 120 135 152 153 153 157 163 169 173 177 176 181
330 329 326 324 324 325 325 324 324 326 324 325 325 326 328 332 335 337 339 345 347 345 347 347 351 353 350 348 329 317 283 213 180 173 163 159 164 173 173 176 176 179 180